Weather History for Tetuan, Morocco

Change the Weather History Date:

Sunday, October 14, 2012

  Actual Average Record
Temperature  
Mean Temperature 70 °F -  
Max Temperature 81 °F 69 °F 81 °F (2012)
Min Temperature 60 °F 58 °F 57 °F (2013)
Cooling Degree Days 6    
Growing Degree Days 20 (Base 50)    
Moisture  
Dew Point 56 °F    
Average Humidity 60    
Maximum Humidity 77    
Minimum Humidity 37    
Precipitation  
Precipitation 0.00 in - - ()
Sea Level Pressure  
Sea Level Pressure 29.91 in    
Wind  
Wind Speed 10 mph ()    
Max Wind Speed 20 mph    
Max Gust Speed 22 mph    
Visibility 5.2 miles    
Events      
Averages and records for this station are not official NWS values.
T = Trace of Precipitation, MM = Missing Value Source: Averaged Metar Reports

Daily Weather History Graph

Daily Weather History Graph

Search for Another Location

Airport:

Trip Planner

Search our weather history database for the weather conditions in past years. The results will help you decide how hot, cold, wet, or windy it might be!

Date:

Astronomy

Oct. 14, 2012 Rise Set
Actual Time 6:27 AM WET 5:46 PM WET
Civil Twilight 6:01 AM WET 6:12 PM WET
Nautical Twilight 5:31 AM WET 6:42 PM WET
Astronomical Twilight 5:02 AM WET 7:11 PM WET
Moon 5:10 AM WET (10/14) 4:57 PM WET (10/14)
Length of Visible Light 12h 10m
Length of Day
11h 19m
Waning Crescent, 1% of the Moon is Illuminated
Oct 14
Waning Crescent
Oct 15
New
Oct 22
First Quarter
Oct 29
Full
Nov 7
Last Quarter

Hourly Weather History & Observations

Time (WET) Temp. Heat Index Dew Point Humidity Pressure Visibility Wind Dir Wind Speed Gust Speed Precip Events Conditions
2:00 AM 64.4 °F - 53.6 °F 68% 29.95 in 6.2 mi SW 9.2 mph - N/A   Unknown
2:10 AM 64.4 °F - 53.6 °F 68% 29.95 in 6.2 mi SW 9.2 mph - N/A   Unknown
3:00 AM 63 °F - 53 °F 63% 29.95 in 4 mi SSW 6.9 mph - -  
3:00 AM 62.6 °F - 53.6 °F 72% 29.95 in 4.3 mi SSW 6.9 mph - N/A   Unknown
4:00 AM 66.2 °F - 55.4 °F 68% 29.92 in 5.6 mi SW 9.2 mph - N/A   Unknown
6:00 AM 60 °F - 53 °F 72% 29.95 in 1 mi South 10.4 mph - -  
6:00 AM 60.8 °F - 53.6 °F 77% 29.92 in 1.2 mi South 10.4 mph - N/A   Unknown
7:00 AM 64.4 °F - 55.4 °F 73% 29.95 in 3.7 mi SW 6.9 mph - N/A   Unknown
8:00 AM 68.0 °F - 57.2 °F 68% 29.95 in - West 9.2 mph - N/A   Clear
9:00 AM 72 °F - 56 °F 48% 29.97 in 6 mi SW 11.5 mph - -   Clear
9:00 AM 71.6 °F - 57.2 °F 60% 29.95 in - SW 11.5 mph - N/A   Clear
10:00 AM 71.6 °F - 59.0 °F 64% 29.95 in - West 10.4 mph - N/A   Clear
11:00 AM 77.0 °F - 57.2 °F 50% 29.92 in 6.2 mi West 13.8 mph - N/A   Scattered Clouds
12:00 PM 77.0 °F - 55.4 °F 47% 29.92 in 6.2 mi West 12.7 mph - N/A   Scattered Clouds
1:00 PM 78.8 °F - 55.4 °F 44% 29.89 in 6.2 mi West 17.3 mph - N/A   Scattered Clouds
2:00 PM 80.6 °F 80.5 °F 55.4 °F 42% 29.86 in 6.2 mi West 12.7 mph - N/A   Scattered Clouds
3:00 PM 78 °F - 56 °F 37% 29.87 in 6 mi WNW 16.1 mph - -   Partly Cloudy
3:00 PM 77.0 °F - 57.2 °F 50% 29.86 in 6.2 mi WNW 16.1 mph - N/A   Partly Cloudy
4:00 PM 77.0 °F - 57.2 °F 50% 29.86 in 6.2 mi WNW 17.3 mph - N/A   Partly Cloudy
5:00 PM 73.4 °F - 57.2 °F 57% 29.86 in 6.2 mi West 16.1 mph - N/A   Partly Cloudy
6:00 PM 71 °F - 57 °F 53% 29.88 in 6 mi West 10.4 mph - -   Scattered Clouds
6:00 PM 69.8 °F - 57.2 °F 64% 29.86 in 6.2 mi West 10.4 mph 21.9 mph N/A   Partly Cloudy
7:00 PM 69.8 °F - 59.0 °F 68% 29.89 in 6.2 mi West 12.7 mph - N/A   Partly Cloudy
8:00 PM 68.0 °F - 59.0 °F 73% 29.89 in 6.2 mi WSW 19.6 mph - N/A   Partly Cloudy
9:00 PM 69 °F - 56 °F 55% 29.92 in 6 mi WSW 15.0 mph - -   Scattered Clouds
9:00 PM 68.0 °F - 57.2 °F 68% 29.89 in 4.3 mi WSW 15.0 mph - N/A   Partly Cloudy
10:00 PM 68.0 °F - 55.4 °F 64% 29.89 in 4.3 mi WSW 12.7 mph - N/A   Partly Cloudy
11:00 PM 68.0 °F - 55.4 °F 64% 29.86 in 3.7 mi WSW 10.4 mph - N/A   Unknown